Regional Weather Roundup
Issued by NWS Northern Indiana

Home | Current Version | Previous Version | Text Only | Print | Product List | Glossary On
Versions: 1 2 3 4 5 6 7 8 9 10 11 12 13 14 15 16 17 18 19 20 21 22 23 24 25 26 27 28 29 30 31 32 33 34 35 36 37 38 39 40 41 42 43 44 45 46 47 48 49 50
000
ASUS43 KIWX 281210
RWRIWX

KIWX WEATHER ROUNDUP
NATIONAL WEATHER SERVICE NORTHERN INDIANA
700 AM EST TUE FEB 28 2017

NOTE: "FAIR" INDICATES FEW OR NO CLOUDS BELOW 12,000 FEET WITH NO
SIGNIFICANT WEATHER AND/OR OBSTRUCTIONS TO VISIBILITY.

* THESE STATIONS ARE NOT UNDER NWS QUALITY CONTROL. THEY ALSO MAY NOT
  REPORT WEATHER SUCH AS PRECIPITATION OR FOG.

INZ001>027-281300-
NORTHERN INDIANA

CITY           SKY/WX    TMP DP  RH WIND       PRES   REMARKS
GARY*          CLOUDY    50  45  81 S13       29.90R
VALPARAISO     CLOUDY    48  45  89 S14G21    29.93S
6HR MIN TEMP:  44; 6HR MAX TEMP:  48; 6HR PCP:  0.06;

MICHIGAN CITY* CLOUDY    46  46 100 S7        29.92S
LAPORTE*       CLOUDY    46  44  93 S8        29.93S
6HR MIN TEMP:  42; 6HR MAX TEMP:  46; 6HR PCP:  0.08;

KNOX*          CLOUDY    45  32  61 S16       29.93S
SOUTH BEND     CLOUDY    45  43  93 S12       29.94F
6HR MIN TEMP:  43; 6HR MAX TEMP:  45; 6HR PCP:  0.11;

ELKHART*       CLOUDY    45  43  93 S12       29.95
GOSHEN         CLOUDY    45  41  86 SE12      29.96F
6HR MIN TEMP:  42; 6HR MAX TEMP:  45; 6HR PCP:  0.14;

MONTICELLO*    CLOUDY    46  44  94 SE6       29.95S
6HR MIN TEMP:  44; 6HR MAX TEMP:  46; 6HR PCP:  0.16;

LOGANSPORT*    CLOUDY    45  43  93 SE10      29.98S
ROCHESTER*     CLOUDY    46  45  93 SE8       29.97F
WARSAW*        DRIZZLE   45  43  93 SE8       29.98F
ANGOLA*        CLOUDY    41  34  75 SE8       30.00F
FORT WAYNE     RAIN      44  42  93 E6        30.02S FOG
6HR MIN TEMP:  41; 6HR MAX TEMP:  44; 6HR PCP:  0.11;

HUNTINGTON*    RAIN      44  43  95 SE6       30.00F
6HR MIN TEMP:  41; 6HR MAX TEMP:  44; 6HR PCP:  0.12;

PERU/GRISSOM   LGT RAIN  46  46 100 S12       29.97R
6HR MIN TEMP:  42; 6HR MAX TEMP:  46; 6HR PCP:  0.19;

MARION*        LGT RAIN  46  44  93 S12       30.00F
6HR MIN TEMP:  -6; 6HR MAX TEMP:  89;


$$
INZ028>050-281300-
CENTRAL INDIANA

CITY           SKY/WX    TMP DP  RH WIND       PRES   REMARKS
LAFAYETTE      CLOUDY    47  46  97 S5        29.95S
6HR MIN TEMP:  45; 6HR MAX TEMP:  47; 6HR PCP:  0.15;

KOKOMO*        CLOUDY    46  44  93 S15       29.98F
6HR MIN TEMP:  43; 6HR MAX TEMP:  47; 6HR PCP:  0.11;

MUNCIE*        LGT RAIN  48  44  86 S9        30.01F
6HR MIN TEMP:  46; 6HR MAX TEMP:  49; 6HR PCP:  0.04;

INDIANAPOLIS   MOCLDY    46  45  96 SE10      29.99F
6HR MIN TEMP:  45; 6HR MAX TEMP:  46; 6HR PCP:  0.09;


$$
MIZ043>046-050>051-056>058-064>065-071>073-077>080-281300-
SOUTHWEST LOWER MICHIGAN

CITY           SKY/WX    TMP DP  RH WIND       PRES   REMARKS
BATTLE CREEK   CLOUDY    43  41  93 S14       29.97F
6HR MIN TEMP:  39; 6HR MAX TEMP:  43; 6HR PCP:  0.05;

BENTON HARBOR  CLOUDY    48  43  82 SE17G23   29.91S
6HR MIN TEMP:  44; 6HR MAX TEMP:  48; 6HR PCP:  0.03;

COLDWATER*     DRIZZLE   42  42  99 SE9       30.00F
6HR MIN TEMP:  40; 6HR MAX TEMP:  42;

HILLSDALE*     RAIN      39  37  93 SE10      30.02F
HOLLAND        CLOUDY    45  41  86 E5        29.93R
6HR MIN TEMP:  42; 6HR MAX TEMP:  45; 6HR PCP:  0.02;

GRAND RAPIDS   HVY RAIN  43  39  86 VRB6      29.95R FOG
6HR MIN TEMP:  39; 6HR MAX TEMP:  43; 6HR PCP:  0.02;

KALAMAZOO      CLOUDY    44  40  85 S12G21    29.95F
6HR MIN TEMP:  41; 6HR MAX TEMP:  44; 6HR PCP:  0.03;

STURGIS*       CLOUDY    43  42  95 SE14G20   29.96F
6HR MIN TEMP:  39; 6HR MAX TEMP:  43; 6HR PCP:  0.02;

THREE RIVERS*  CLOUDY    44  42  93 S8        29.97S

$$
OHZ001>008-015>018-024>025-281300-
NORTHWEST OHIO

CITY           SKY/WX    TMP DP  RH WIND       PRES   REMARKS
WAUSEON*       LGT RAIN  41  41 100 S9        30.06S
DEFIANCE       LGT RAIN  42  39  89 SE5       30.06F
6HR MIN TEMP:  39; 6HR MAX TEMP:  42; 6HR PCP:  0.02;

FINDLAY        CLOUDY    43  37  79 S10       30.09S
6HR MIN TEMP:  41; 6HR MAX TEMP:  43;

TOLEDO EXPRESS LGT RAIN  40  40 100 SE5       30.07F
6HR MIN TEMP:  34; 6HR MAX TEMP:  40; 6HR PCP:  0.03;

TOLEDO METCALF CLOUDY    42  40  92 SE8       30.07F
6HR MIN TEMP:  37; 6HR MAX TEMP:  42; 6HR PCP: TRACE;

LIMA           CLOUDY    44  40  85 SE10      30.06F
6HR MIN TEMP:  41; 6HR MAX TEMP:  44;


$$
AND FOR LAKE MICHIGAN COASTAL AND OPEN LAKE BUOY OBSERVATIONS

STATION/POSITION TEMP    WIND        PRES    VSBY  WAVE
                 AIR SEA DIR/SP/G                  HT/PER
                 (F)     (DEG/KT/KT) (MB)    (MI)  (FT/S)
CALUMET HARBOR    49     170/ 11/ 18 1011.3S
MICHIGAN CITY     48     140/ 16/ 21   N/A
BURNS HARBOR      49     170/ 13/ 24 1013.2R

$$
&&




USA.gov is the U.S. government's official web portal to all federal, state and local government web resources and services.